RH
47 40 36 45 60 54 15 17 41 52 45 17 22 19 14 13 12 13 13 14 14 12 10 9 9 8 8 7 8 6 10 12 12 14 17 15 19 19 19 21 17 14 14 14 17 21 22
30 26 30 28 25 29 61 17 23 38 54 44 17 21 17 14 13 12 11 12 12 12 10 9 9 8 7 7 6 7 8 8 9 11 14 16 18 16 22 22 20 16 13 13 12 15 17
7 6 6 6 5 8 21 74 24 16 34 52 46 17 20 18 15 14 13 11 11 11 10 9 8 7 6 6 6 6 6 6 8 11 12 16 19 21 26 32 24 20 16 12 12 13 16
9 7 6 6 6 5 6 11 58 36 19 33 48 48 18 20 18 16 15 14 13 11 10 9 8 7 6 5 5 5 5 6 6 9 12 15 18 20 21 40 34 26 21 15 14 20 25
7 6 5 4 4 4 5 5 8 42 46 24 30 44 48 24 18 19 18 17 15 14 12 10 9 9 8 8 6 6 8 7 8 9 16 16 17 20 22 34 48 38 32 34 23 31 30
8 8 8 6 5 4 3 3 6 5 37 52 26 27 41 45 34 14 19 19 19 18 17 17 15 13 11 10 10 10 9 8 8 9 10 17 19 17 20 30 30 57 55 49 44 46 47
10 7 5 4 4 3 3 3 3 5 4 42 52 28 26 37 43 44 15 15 19 20 20 19 18 17 16 15 14 13 12 11 12 14 16 18 19 17 34 48 39 31 47 46 42 38 38
7 5 4 4 3 3 3 2 2 3 4 4 28 43 30 22 37 38 46 24 11 14 18 19 20 19 19 18 16 15 16 15 14 16 20 19 17 28 34 37 46 48 36 33 28 34 36
6 5 4 3 2 2 2 2 2 2 2 4 4 17 29 34 20 35 39 44 38 24 11 11 14 17 18 18 17 21 24 21 20 20 20 20 20 24 28 39 46 51 52 50 46 58 51
6 5 3 2 2 2 2 2 2 2 2 2 3 6 14 17 32 21 28 44 46 43 37 23 11 10 14 15 14 22 30 29 26 23 22 20 20 38 51 49 63 58 66 68 63 60 51
6 4 2 2 2 2 3 3 2 2 2 2 100 60 24 8 19 25 36 32 40 49 40 37 34 24 14 12 17 26 34 32 27 23 24 29 33 53 51 55 68 50 72 64 61 58 50
5 2 2 4 6 5 4 4 4 3 2 85 100 98 100 53 7 13 30 25 31 37 40 39 34 30 26 20 22 27 30 28 23 33 47 60 62 53 52 61 69 68 73 74 76 73 42
3 3 4 6 4 3 3 3 3 3 4 24 100 100 100 96 67 15 11 28 33 26 29 32 34 36 43 37 26 29 30 28 51 72 58 47 39 35 32 32 42 79 97 100 100 83 46
3 5 7 4 2 1 20 76 26 3 4 38 100 86 95 100 99 98 16 20 25 22 28 33 36 41 36 24 27 31 32 78 39 36 58 61 56 53 47 58 100 100 100 100 100 90 84
4 6 7 2 1 22 100 88 42 4 4 34 100 100 95 99 98 92 39 10 22 28 28 33 36 44 36 28 33 46 74 21 19 30 77 80 60 62 64 99 98 96 99 85 100 100 100
5 8 6 2 5 86 100 88 100 68 6 96 100 100 100 100 96 70 44 12 32 36 33 35 44 42 28 33 42 83 21 21 20 36 72 77 66 66 63 94 85 75 95 100 100 100 100
6 8 5 2 12 85 100 97 100 71 12 100 100 100 100 100 84 81 40 25 39 37 38 44 50 35 31 38 92 47 23 21 17 27 30 39 51 51 62 54 70 76 82 100 100 97 69
6 7 4 1 19 47 100 70 86 72 41 81 100 98 100 97 96 66 39 56 46 39 50 54 44 30 35 96 75 41 33 30 22 33 51 61 53 49 71 98 82 90 80 96 100 68 56
5 6 3 1 2 30 45 70 95 52 95 100 100 100 100 96 61 73 85 57 45 53 64 43 25 36 82 85 33 49 56 50 67 38 65 86 86 100 100 100 100 97 86 65 71 95 53
4 5 3 3 0 26 95 85 64 35 96 100 99 100 100 99 74 100 74 52 68 72 30 22 35 58 86 60 36 58 75 75 82 64 94 100 100 100 100 100 100 100 80 51 68 52 30
4 4 4 5 12 80 77 85 99 96 100 100 92 74 95 63 76 71 55 63 91 35 35 43 40 88 97 52 42 53 69 86 96 100 99 98 100 100 100 99 100 60 31 35 36 35 27
4 3 10 2 63 89 97 88 97 92 97 96 100 84 83 89 100 71 62 89 49 48 67 58 57 80 98 63 42 47 82 99 100 100 100 100 100 100 94 100 100 87 72 30 38 48 86
4 3 17 1 49 88 100 86 98 100 98 100 96 100 100 100 98 68 75 100 58 54 65 68 98 98 100 73 41 42 64 79 90 98 99 97 100 98 97 99 98 84 43 46 57 89 95
4 3 18 7 60 88 93 100 99 100 100 100 100 100 100 98 79 78 100 95 46 52 62 58 64 90 100 88 42 39 69 72 66 98 100 99 100 98 99 100 98 98 95 96 96 97 97
3 2 22 28 49 72 87 90 94 100 99 100 100 100 95 93 98 95 98 62 62 56 53 79 89 89 96 90 54 38 54 54 58 83 94 97 98 98 96 85 94 98 95 95 92 93 94
3 2 12 30 53 72 84 81 84 83 100 100 100 100 100 100 85 93 98 57 63 65 63 78 67 78 98 93 85 34 44 38 35 64 83 90 88 82 75 69 82 99 100 100 81 88 99
3 2 6 25 41 58 74 86 86 100 98 100 100 97 99 99 88 89 94 56 49 62 70 80 93 96 100 96 82 48 28 31 36 59 65 76 80 77 78 74 68 66 84 85 87 91 83
3 2 3 20 36 58 75 79 95 98 100 100 100 98 91 94 96 97 70 51 64 83 76 73 95 98 96 96 90 69 30 36 37 51 52 50 51 56 65 78 75 70 70 68 64 61 66
3 2 2 18 35 59 68 85 84 100 99 94 97 100 100 100 98 100 80 54 74 86 70 95 99 98 90 93 98 82 62 66 45 44 46 44 43 54 62 61 56 77 78 76 72 72 77
Wind_Speed
39 40 39 35 36 40 36 32 40 40 34 33 37 35 33 31 29 27 26 26 27 29 31 31 31 30 30 29 28 27 26 27 29 29 31 33 34 37 37 40 46 47 38 38 35 33 32
38 39 39 38 37 37 42 36 36 40 43 35 36 38 36 34 32 29 27 27 26 26 28 28 29 29 29 29 30 27 26 27 30 33 33 32 34 37 37 37 42 46 46 44 43 39 38
39 41 40 37 35 36 36 42 38 38 39 44 37 38 40 37 35 33 31 29 28 28 27 27 27 28 29 31 27 28 27 27 28 31 34 34 33 35 37 37 41 41 46 48 46 43 41
41 41 41 41 42 37 39 38 43 41 41 40 45 41 39 41 39 37 35 33 31 30 30 28 27 27 28 30 28 28 28 29 29 31 33 35 36 37 39 40 41 43 44 45 45 43 44
43 44 44 42 40 42 42 41 43 42 44 43 42 47 44 41 42 41 39 36 34 32 31 29 28 27 27 29 30 28 29 31 32 33 32 35 37 38 39 42 44 45 44 44 46 46 47
47 49 51 52 50 46 45 47 46 45 44 47 46 44 49 47 43 43 43 40 38 35 33 31 29 29 28 27 29 28 28 28 29 32 34 37 39 41 42 39 42 43 47 49 50 50 50
54 56 58 58 58 56 54 48 51 51 49 49 51 48 46 51 49 45 43 44 42 40 36 36 34 32 30 29 29 30 29 29 30 32 35 38 40 42 39 39 41 49 54 54 53 52 51
63 65 69 71 69 66 61 57 51 54 54 52 54 53 50 47 51 51 47 43 43 43 40 39 38 34 33 31 30 31 31 32 35 35 36 39 40 41 43 44 45 47 52 55 54 51 54
67 72 79 78 73 67 61 58 54 55 56 56 56 57 54 52 49 50 49 47 45 42 41 40 40 38 38 36 35 33 35 36 36 40 42 43 41 45 48 48 49 48 49 51 52 50 52
73 82 82 71 66 65 60 56 53 52 54 57 57 56 58 58 55 49 45 50 48 44 44 39 38 39 39 38 40 39 36 38 40 42 47 48 46 47 48 49 50 49 50 50 52 55 55
81 84 76 67 62 56 51 48 46 48 50 50 44 55 58 60 57 50 48 50 47 45 45 42 40 38 38 41 40 38 40 41 45 47 51 50 48 50 52 51 54 56 50 53 55 57 58
87 79 67 58 55 52 47 42 39 42 48 54 40 52 38 49 60 55 53 49 44 43 47 40 38 37 38 39 38 40 40 45 50 51 52 50 48 48 47 49 53 53 51 52 54 54 61
83 69 59 56 50 39 30 28 29 38 48 60 50 45 48 39 44 52 54 51 47 44 37 37 38 39 40 39 38 38 43 50 50 49 49 45 44 44 46 47 52 53 48 48 51 57 64
74 58 58 52 40 26 15 10 21 34 46 66 44 51 39 40 38 43 54 52 49 41 35 37 38 38 34 34 35 41 45 41 43 46 45 45 45 42 42 39 38 39 38 45 49 53 57
67 57 56 47 28 7 7 20 18 28 47 65 56 49 48 44 46 44 51 53 46 37 37 37 38 36 33 32 37 37 33 34 35 32 31 31 29 24 28 34 33 36 35 31 41 45 44
63 57 53 40 16 4 9 11 12 18 46 71 52 51 44 43 39 37 44 48 41 39 37 35 35 30 28 34 33 28 23 21 24 23 22 24 28 27 28 34 34 35 31 31 38 39 37
62 56 49 34 15 12 10 20 19 23 50 59 64 47 47 42 33 35 43 43 38 38 37 36 28 27 31 29 26 23 16 19 20 23 19 15 19 18 27 30 27 29 35 37 37 36 36
63 55 43 30 14 16 18 22 16 19 43 71 52 33 44 36 35 28 33 35 38 38 36 28 25 29 26 19 25 19 16 18 21 23 23 23 21 20 20 20 27 30 31 35 36 36 36
63 54 39 25 12 11 18 15 20 34 47 54 40 35 33 41 33 29 26 32 34 33 28 25 27 22 18 19 19 15 11 16 16 22 24 22 20 19 18 21 32 37 27 32 33 31 37
63 54 37 22 10 12 17 22 18 37 54 44 43 33 34 42 28 25 28 30 29 28 26 27 20 18 12 16 15 7 10 14 13 21 24 21 22 17 15 14 9 13 20 32 35 35 32
62 51 34 21 6 22 20 21 16 47 54 42 37 39 32 35 30 30 33 30 27 25 25 22 15 13 11 13 9 3 13 17 14 14 13 13 16 14 10 11 10 7 15 22 28 22 33
58 47 29 14 14 18 21 25 34 48 44 23 36 43 41 23 20 23 26 26 25 27 24 17 13 13 12 15 10 7 11 8 11 10 13 17 19 14 9 7 2 8 9 13 19 28 33
55 40 23 6 13 20 27 34 38 39 30 30 30 30 37 30 24 26 22 23 24 25 18 15 16 16 15 16 11 10 9 11 12 11 15 17 17 12 7 7 9 2 11 16 20 25 22
55 34 9 14 25 27 31 26 37 33 29 36 30 33 28 27 24 21 19 24 22 20 16 16 22 20 18 16 12 12 10 3 5 9 15 16 18 21 14 7 7 10 11 12 15 17 13
58 29 14 24 28 33 31 33 36 36 34 29 23 36 27 19 21 24 21 21 20 20 18 18 20 19 18 14 14 13 14 5 1 4 7 12 14 16 20 15 19 27 26 28 23 26 29
62 27 17 31 37 36 37 34 36 32 31 28 29 23 31 23 22 20 24 21 19 19 20 18 19 19 15 19 15 16 17 12 7 4 5 6 6 7 15 14 15 15 20 21 22 19 16
61 30 16 35 41 37 37 33 29 25 30 24 31 25 26 29 27 22 24 22 20 18 18 15 19 20 22 22 19 16 20 15 14 11 11 7 4 3 8 8 11 13 15 13 13 12 11
59 36 14 38 45 46 40 37 31 29 35 25 26 32 26 20 24 25 23 20 19 18 16 16 17 19 15 18 20 19 20 16 16 19 15 12 9 6 5 7 7 6 6 7 7 9 10
59 38 15 39 46 48 43 38 29 30 32 26 27 25 23 21 27 19 23 21 18 18 16 19 14 13 16 17 19 17 16 13 17 20 20 18 14 13 13 8 6 8 8 9 10 10 10
Wind_Direction
300 302 304 303 290 270 267 267 261 254 261 255 246 244 241 239 237 234 237 240 241 240 238 241 246 250 253 258 256 256 260 263 265 265 260 261 258 259 257 251 248 251 245 244 242 244 248
305 304 301 300 294 294 267 264 263 259 255 257 250 245 243 239 238 236 235 237 238 240 241 240 244 248 253 257 258 262 263 266 266 270 270 266 260 262 261 260 252 251 248 247 248 246 252
313 310 308 304 296 288 281 261 258 263 258 252 252 248 244 243 240 238 237 237 239 241 241 242 244 249 252 258 264 267 266 266 268 271 271 276 271 268 264 257 252 251 249 249 248 251 254
310 307 303 298 293 288 279 272 258 255 259 253 248 249 247 244 242 241 240 239 240 242 244 245 248 251 256 257 262 269 270 271 272 270 273 273 270 268 267 260 253 249 245 245 248 250 251
307 306 304 301 294 287 279 274 262 257 252 254 250 245 246 246 243 242 242 241 240 241 244 246 249 254 258 259 264 269 273 275 275 273 271 270 271 271 269 262 257 253 252 247 246 248 247
309 308 307 303 300 294 282 270 264 257 250 249 247 246 241 243 244 243 242 241 242 241 243 247 249 254 258 267 269 269 270 274 277 277 276 275 274 274 272 265 263 257 251 247 245 245 246
316 315 313 309 304 296 288 278 261 254 247 241 245 242 243 238 240 243 242 243 243 243 243 246 249 254 257 264 267 270 273 273 272 275 278 278 278 278 274 267 262 254 250 249 248 249 247
320 319 318 314 305 296 288 279 264 251 244 240 236 239 238 240 237 238 241 241 243 244 245 248 252 255 259 262 263 271 273 275 278 280 279 278 280 276 271 267 263 257 253 252 252 252 253
321 321 318 311 303 294 283 274 263 249 240 234 232 232 235 235 237 237 236 239 241 243 246 246 250 255 258 261 266 270 274 278 277 280 282 278 279 273 270 266 263 260 256 254 255 252 251
323 321 316 308 297 290 284 273 261 247 237 232 227 226 232 233 232 234 236 239 239 241 246 246 250 252 257 262 265 268 274 278 281 281 279 281 282 273 267 263 260 258 256 254 252 250 249
328 324 318 309 300 292 283 271 255 245 230 223 208 228 226 230 232 229 231 234 238 241 246 246 248 255 258 262 266 269 278 281 283 281 280 281 275 269 268 263 258 257 252 250 248 248 248
331 326 318 311 304 297 288 275 255 233 217 194 201 222 221 229 227 226 227 232 235 237 243 247 253 255 259 264 268 276 282 285 285 283 282 280 276 270 264 259 257 257 255 251 248 246 248
334 325 321 316 311 298 282 269 249 219 209 195 197 193 207 227 230 225 225 227 229 233 239 245 249 254 259 265 271 280 285 285 287 286 284 277 271 263 258 255 254 252 249 247 246 243 248
333 325 325 323 315 296 258 265 238 211 204 189 186 197 191 220 223 220 223 223 226 230 234 242 250 256 264 271 279 283 286 295 295 285 279 271 263 258 256 252 252 252 248 245 245 248 250
334 330 331 327 315 258 240 217 227 208 192 185 183 188 189 200 218 225 220 221 222 224 230 237 246 256 268 274 277 286 299 303 307 293 278 271 269 257 252 247 250 246 240 251 246 242 248
336 335 333 330 316 197 256 202 214 208 197 185 179 190 183 195 213 223 221 217 215 220 226 235 245 257 264 272 282 294 297 321 309 316 279 271 262 260 250 255 251 246 237 236 238 235 226
338 338 334 331 311 179 212 223 213 211 184 183 178 186 175 197 207 220 216 210 212 215 223 232 245 254 262 276 286 286 292 310 303 309 307 291 273 266 258 264 264 256 243 230 232 232 231
339 339 334 325 300 206 216 234 212 189 192 185 170 175 178 187 202 210 210 204 209 213 222 233 241 250 268 280 290 287 271 287 288 297 302 301 282 273 265 260 253 253 239 228 231 224 223
340 340 332 319 305 247 236 233 199 184 195 164 171 176 185 196 203 211 203 204 207 214 221 225 237 254 266 291 290 285 283 276 288 285 283 283 295 295 290 257 252 246 242 220 212 226 219
340 340 330 314 292 167 151 143 158 189 172 168 177 185 183 192 211 206 203 205 205 212 216 225 236 248 273 289 277 290 308 305 295 273 277 280 285 291 303 293 281 238 220 204 210 219 207
341 340 329 319 220 149 150 157 174 176 170 171 182 183 186 179 189 190 194 200 202 213 220 227 231 249 283 272 252 272 289 272 270 283 311 319 346 339 346 228 212 193 178 204 222 211 204
343 340 328 316 170 169 167 168 173 175 164 177 186 194 184 201 194 196 199 204 203 214 220 223 227 246 270 263 238 232 277 342 346 8 12 359 24 65 83 45 45 179 154 174 184 192 191
345 341 332 287 180 170 154 159 169 172 187 176 192 193 195 200 204 194 194 208 215 218 223 223 222 245 266 261 238 232 258 50 2 57 52 62 64 88 102 74 74 77 189 174 194 201 189
347 341 314 204 178 176 169 167 171 163 169 182 192 193 197 202 191 198 217 215 217 225 230 236 228 230 256 269 235 225 216 126 24 5 68 72 80 88 82 119 71 94 138 202 201 200 204
348 335 231 195 190 184 182 177 173 174 186 185 166 186 178 191 198 204 218 210 214 230 231 236 239 242 240 251 241 220 219 230 45 28 67 90 79 87 98 108 91 107 101 102 108 130 137
350 334 227 207 200 195 195 183 180 184 188 197 176 195 196 190 199 212 211 214 216 228 236 241 243 243 237 255 248 218 222 233 206 192 130 145 112 89 104 103 99 115 126 131 136 140 144
352 340 237 210 206 199 190 180 192 205 200 190 189 183 193 202 216 223 213 219 224 232 239 246 241 244 255 251 235 223 229 227 204 190 172 173 168 120 105 109 125 134 141 147 150 155 164
352 343 257 211 203 196 197 192 201 196 182 200 192 199 198 206 211 210 213 220 230 237 244 229 240 248 268 242 219 214 211 221 216 193 198 204 193 179 190 169 167 163 179 177 189 195 204
353 345 280 211 205 198 199 200 208 198 189 191 189 193 210 214 203 205 210 217 229 233 240 220 255 242 257 239 218 202 195 208 222 206 203 218 217 202 198 221 213 185 192 209 213 215 222